TimeCDT,TemperatureF,Dew PointF,Humidity,Sea Level PressureIn,VisibilityMPH,Wind Direction,Wind SpeedMPH,Gust SpeedMPH,PrecipitationIn,Events,Conditions,WindDirDegrees,DateUTC
12:14 AM,54.9,50.5,85,30.13,10.0,Calm,Calm,-,N/A,,Clear,0,2013-08-15 05:14:00
12:34 AM,54.9,50.2,84,30.13,10.0,Calm,Calm,-,N/A,,Clear,0,2013-08-15 05:34:00
12:54 AM,54.1,49.8,85,30.13,10.0,Calm,Calm,-,N/A,,Clear,0,2013-08-15 05:54:00
1:14 AM,54.0,49.6,85,30.13,10.0,Calm,Calm,-,N/A,,Clear,0,2013-08-15 06:14:00
1:34 AM,53.4,49.5,86,30.13,10.0,Calm,Calm,-,N/A,,Clear,0,2013-08-15 06:34:00
1:54 AM,53.6,49.5,86,30.13,10.0,Calm,Calm,-,N/A,,Clear,0,2013-08-15 06:54:00
2:14 AM,53.2,49.1,86,30.13,10.0,Calm,Calm,-,N/A,,Clear,0,2013-08-15 07:14:00
2:34 AM,52.7,49.1,88,30.13,10.0,Calm,Calm,-,N/A,,Clear,0,2013-08-15 07:34:00
2:54 AM,52.5,49.1,88,30.13,10.0,Calm,Calm,-,N/A,,Clear,0,2013-08-15 07:54:00
3:14 AM,52.2,49.1,89,30.12,10.0,Calm,Calm,-,N/A,,Clear,0,2013-08-15 08:14:00
3:34 AM,51.8,48.6,89,30.12,10.0,Calm,Calm,-,N/A,,Scattered Clouds,0,2013-08-15 08:34:00
3:54 AM,52.3,49.1,89,30.12,10.0,Calm,Calm,-,N/A,,Scattered Clouds,0,2013-08-15 08:54:00
4:14 AM,52.5,48.6,86,30.12,10.0,Calm,Calm,-,N/A,,Clear,0,2013-08-15 09:14:00
4:34 AM,53.2,49.1,86,30.12,10.0,Calm,Calm,-,N/A,,Scattered Clouds,0,2013-08-15 09:34:00
4:54 AM,54.1,49.6,85,30.12,10.0,Calm,Calm,-,N/A,,Clear,0,2013-08-15 09:54:00
5:14 AM,54.5,49.6,84,30.12,10.0,Calm,Calm,-,N/A,,Scattered Clouds,0,2013-08-15 10:14:00
5:34 AM,55.6,50.0,81,30.12,10.0,Calm,Calm,-,N/A,,Scattered Clouds,0,2013-08-15 10:34:00
5:54 AM,55.4,50.0,82,30.12,10.0,Calm,Calm,-,N/A,,Scattered Clouds,0,2013-08-15 10:54:00
6:14 AM,56.3,50.5,81,30.13,10.0,Calm,Calm,-,N/A,,Mostly Cloudy,0,2013-08-15 11:14:00
6:34 AM,56.3,50.9,82,30.13,10.0,Calm,Calm,-,N/A,,Mostly Cloudy,0,2013-08-15 11:34:00
6:54 AM,55.4,50.9,85,30.13,10.0,Calm,Calm,-,N/A,,Scattered Clouds,0,2013-08-15 11:54:00
7:14 AM,55.8,51.1,84,30.14,10.0,Calm,Calm,-,N/A,,Clear,0,2013-08-15 12:14:00
7:34 AM,55.6,51.6,87,30.14,10.0,Calm,Calm,-,N/A,,Clear,0,2013-08-15 12:34:00
7:54 AM,57.9,53.6,86,30.14,10.0,Calm,Calm,-,N/A,,Clear,0,2013-08-15 12:54:00
8:15 AM,58.8,54.5,86,30.14,10.0,Calm,Calm,-,N/A,,Clear,0,2013-08-15 13:15:00
8:34 AM,60.3,55.4,84,30.14,10.0,Calm,Calm,-,N/A,,Scattered Clouds,0,2013-08-15 13:34:00
8:54 AM,61.9,56.7,83,30.15,10.0,SSW,4.6,-,N/A,,Clear,210,2013-08-15 13:54:00
9:15 AM,63.3,57.2,80,30.15,10.0,SW,3.5,-,N/A,,Clear,220,2013-08-15 14:15:00
9:34 AM,63.7,57.2,79,30.15,10.0,SW,4.6,-,N/A,,Clear,220,2013-08-15 14:34:00
9:54 AM,65.5,58.3,77,30.15,10.0,South,5.8,-,N/A,,Clear,190,2013-08-15 14:54:00
10:14 AM,66.7,58.8,76,30.15,10.0,SSW,4.6,-,N/A,,Clear,210,2013-08-15 15:14:00
10:34 AM,68.4,59.5,73,30.15,10.0,SSW,6.9,-,N/A,,Clear,210,2013-08-15 15:34:00
10:54 AM,69.6,59.4,70,30.14,10.0,SSW,8.1,-,N/A,,Clear,210,2013-08-15 15:54:00
11:14 AM,68.7,57.6,67,30.14,10.0,Calm,Calm,-,N/A,,Scattered Clouds,0,2013-08-15 16:14:00
11:34 AM,70.7,58.5,65,30.14,10.0,SW,4.6,-,N/A,,Scattered Clouds,230,2013-08-15 16:34:00
11:54 AM,70.2,55.8,60,30.14,10.0,SW,5.8,-,N/A,,Scattered Clouds,230,2013-08-15 16:54:00
12:14 PM,70.9,57.6,63,30.13,10.0,WSW,3.5,-,N/A,,Scattered Clouds,240,2013-08-15 17:14:00
12:34 PM,72.7,57.0,58,30.13,10.0,SSW,6.9,-,N/A,,Clear,210,2013-08-15 17:34:00
12:54 PM,73.0,56.5,56,30.13,10.0,South,8.1,-,N/A,,Clear,190,2013-08-15 17:54:00
1:14 PM,74.3,54.1,49,30.12,10.0,SSW,6.9,-,N/A,,Clear,210,2013-08-15 18:14:00
1:34 PM,74.7,55.4,51,30.12,10.0,SW,6.9,-,N/A,,Scattered Clouds,220,2013-08-15 18:34:00
1:54 PM,74.7,52.5,46,30.12,10.0,SSW,5.8,-,N/A,,Scattered Clouds,200,2013-08-15 18:54:00
2:14 PM,75.2,52.0,44,30.11,10.0,SSW,8.1,-,N/A,,Scattered Clouds,210,2013-08-15 19:14:00
2:34 PM,76.1,54.5,47,30.11,10.0,WSW,6.9,-,N/A,,Scattered Clouds,250,2013-08-15 19:34:00
2:54 PM,76.1,52.9,44,30.11,10.0,SSW,5.8,-,N/A,,Scattered Clouds,210,2013-08-15 19:54:00
3:14 PM,76.1,54.0,46,30.11,10.0,WSW,3.5,-,N/A,,Scattered Clouds,240,2013-08-15 20:14:00
3:34 PM,74.3,53.6,48,30.10,10.0,Calm,Calm,-,N/A,,Clear,0,2013-08-15 20:34:00
3:54 PM,76.1,53.8,46,30.10,10.0,WSW,5.8,-,N/A,,Clear,240,2013-08-15 20:54:00
4:14 PM,76.1,53.4,45,30.09,10.0,South,3.5,-,N/A,,Clear,190,2013-08-15 21:14:00
4:34 PM,76.1,53.1,45,30.09,10.0,WSW,3.5,-,N/A,,Clear,240,2013-08-15 21:34:00
4:54 PM,75.2,53.8,47,30.09,10.0,SW,4.6,-,N/A,,Clear,230,2013-08-15 21:54:00
5:14 PM,76.1,52.7,44,30.09,10.0,SSW,4.6,-,N/A,,Scattered Clouds,200,2013-08-15 22:14:00
5:34 PM,76.1,52.3,43,30.10,10.0,Calm,Calm,-,N/A,,Clear,0,2013-08-15 22:34:00
5:54 PM,76.1,53.4,45,30.10,10.0,WSW,3.5,-,N/A,,Clear,250,2013-08-15 22:54:00
6:14 PM,75.2,53.1,46,30.10,10.0,SSW,3.5,-,N/A,,Clear,210,2013-08-15 23:14:00
6:34 PM,74.7,53.4,47,30.11,10.0,SSW,4.6,-,N/A,,Clear,200,2013-08-15 23:34:00
6:54 PM,73.4,55.0,52,30.10,10.0,SSW,5.8,-,N/A,,Scattered Clouds,200,2013-08-15 23:54:00
7:14 PM,72.7,55.8,55,30.11,10.0,SSW,4.6,-,N/A,,Clear,200,2013-08-16 00:14:00
7:34 PM,72.5,56.3,57,30.10,10.0,SSW,4.6,-,N/A,,Clear,200,2013-08-16 00:34:00
7:54 PM,70.7,55.8,59,30.11,10.0,SSW,3.5,-,N/A,,Clear,200,2013-08-16 00:54:00
8:14 PM,69.8,56.1,62,30.11,10.0,Calm,Calm,-,N/A,,Clear,0,2013-08-16 01:14:00
8:34 PM,69.1,56.8,65,30.11,10.0,Calm,Calm,-,N/A,,Clear,0,2013-08-16 01:34:00
8:54 PM,67.6,57.6,70,30.12,10.0,Calm,Calm,-,N/A,,Clear,0,2013-08-16 01:54:00
9:14 PM,66.2,55.8,69,30.12,10.0,Calm,Calm,-,N/A,,Clear,0,2013-08-16 02:14:00
9:34 PM,65.3,55.8,71,30.13,10.0,Calm,Calm,-,N/A,,Clear,0,2013-08-16 02:34:00
9:54 PM,63.1,55.4,76,30.13,10.0,Calm,Calm,-,N/A,,Clear,0,2013-08-16 02:54:00
10:14 PM,62.6,55.0,76,30.13,10.0,Calm,Calm,-,N/A,,Clear,0,2013-08-16 03:14:00
10:34 PM,62.1,55.8,80,30.13,10.0,Calm,Calm,-,N/A,,Clear,0,2013-08-16 03:34:00
10:54 PM,61.5,55.6,81,30.14,10.0,Calm,Calm,-,N/A,,Clear,0,2013-08-16 03:54:00
11:14 PM,60.4,54.1,80,30.15,10.0,Calm,Calm,-,N/A,,Clear,0,2013-08-16 04:14:00
11:34 PM,60.3,54.5,81,30.15,10.0,Calm,Calm,-,N/A,,Clear,0,2013-08-16 04:34:00
11:54 PM,59.4,54.7,84,30.15,10.0,Calm,Calm,-,N/A,,Clear,0,2013-08-16 04:54:00